Location: Gudip?du
(17.0263°N, 80.8301°E)
Time: 17:14:12
(UTC+00:00)

Lacrosse 4 Rocket - Pass Details

Date: 03 August 2024
Orbit: 521 x 593 km, 68.0° (Epoch: 12 September)

Event Time Altitude Azimuth Distance (km) Brightness Sun altitude
Rises 14:30:08 0° 232° (SW) 2,646 5.2 -19.0°
Reaches altitude 10° 14:32:54 10° 253° (WSW) 1,769 4.5 -19.6°
Maximum altitude 14:35:31 17° 294° (WNW) 1,396 4.4 -20.1°
Drops below altitude 10° 14:38:09 10° 336° (NNW) 1,795 4.6 -20.7°
Sets 14:41:00 0° 357° (N) 2,704 5.3 -21.3°
